Weather History for RJTT - November, 2013

Change the Weather History Date:

Thursday, November 28, 2013

  Actual Average Record
Temperature  
Mean Temperature 56 °F -  
Max Temperature 62 °F 52 °F - ()
Min Temperature 50 °F 41 °F - ()
Degree Days  
Heating Degree Days 9    
Growing Degree Days 6 (Base 50)    
Moisture  
Dew Point 35 °F    
Average Humidity 44    
Maximum Humidity 77    
Minimum Humidity 26    
Precipitation  
Precipitation 0.00 in - - ()
Sea Level Pressure  
Sea Level Pressure 29.70 in    
Wind  
Wind Speed 18 mph ()    
Max Wind Speed 33 mph    
Max Gust Speed 46 mph    
Visibility 6.2 miles    
Events Rain    
T = Trace of Precipitation, MM = Missing Value Source: Averaged Metar Reports

Daily Weather History Graph

Daily Weather History Graph

Search for Another Location

Airport or City:

Trip Planner

Search our weather history database for the weather conditions in past years. The results will help you decide how hot, cold, wet, or windy it might be!

Date:

Astronomy

Nov. 28, 2013 Rise Set
Actual Time 6:28 AM JST 4:28 PM JST
Civil Twilight 6:00 AM JST 4:56 PM JST
Nautical Twilight 5:29 AM JST 5:27 PM JST
Astronomical Twilight 4:58 AM JST 5:58 PM JST
Moon 1:02 AM JST (11/28) 1:07 PM JST (11/28)
Length of Visible Light 10h 55m
Length of Day
9h 59m
Waning Crescent, 28% of the Moon is Illuminated
Nov 28
Waning Crescent
Dec 3
New
Dec 10
First Quarter
Dec 17
Full
Dec 25
Last Quarter

Hourly Weather History & Observations

Time (JST) Temp. Dew Point Humidity Pressure Visibility Wind Dir Wind Speed Gust Speed Precip Events Conditions
12:00 AM 59.0 °F 51.8 °F 77% 29.74 in 6.2 mi SSW 13.8 mph - N/A   Scattered Clouds
12:05 AM 59.0 °F 50.0 °F 72% 29.74 in 6.2 mi SSW 17.3 mph 28.8 mph N/A   Scattered Clouds
12:30 AM 59.0 °F 48.2 °F 67% 29.71 in 6.2 mi SSW 18.4 mph - N/A Rain Light Rain Showers
12:50 AM 59.0 °F 48.2 °F 67% 29.71 in 6.2 mi SW 21.9 mph 33.4 mph N/A Rain Light Rain Showers
1:00 AM 59.0 °F 46.4 °F 63% 29.71 in 6.2 mi SW 24.2 mph - N/A Rain Light Rain Showers
1:06 AM 59.0 °F 46.4 °F 63% 29.71 in 6.2 mi SW 23.0 mph 34.5 mph N/A Rain Light Rain Showers
1:30 AM 59.0 °F 48.2 °F 67% 29.71 in 6.2 mi SSW 23.0 mph - N/A   Mostly Cloudy
2:00 AM 59.0 °F 48.2 °F 67% 29.71 in 6.2 mi SSW 16.1 mph - N/A   Mostly Cloudy
2:30 AM 59.0 °F 48.2 °F 67% 29.71 in - SSW 20.7 mph - N/A   Clear
2:35 AM 59.0 °F 48.2 °F 67% 29.71 in - SSW 19.6 mph 31.1 mph N/A   Clear
3:00 AM 60.8 °F 46.4 °F 59% 29.68 in 6.2 mi SSW 25.3 mph 36.8 mph N/A   Unknown
3:30 AM 60.8 °F 46.4 °F 59% 29.68 in - SSW 17.3 mph - N/A   Clear
4:00 AM 60.8 °F 46.4 °F 59% 29.68 in - SW 18.4 mph - N/A   Clear
4:30 AM 59.0 °F 46.4 °F 63% 29.68 in - SW 15.0 mph - N/A   Clear
5:00 AM 59.0 °F 46.4 °F 63% 29.68 in - WSW 11.5 mph - N/A   Clear
5:30 AM 59.0 °F 44.6 °F 59% 29.68 in 6.2 mi WSW 11.5 mph 23.0 mph N/A   Scattered Clouds
6:00 AM 57.2 °F 44.6 °F 63% 29.68 in - WSW 8.1 mph - N/A   Clear
6:30 AM 57.2 °F 42.8 °F 59% 29.71 in 6.2 mi WSW 8.1 mph - N/A   Partly Cloudy
7:00 AM 59.0 °F 42.8 °F 55% 29.71 in 6.2 mi SW 11.5 mph - N/A   Scattered Clouds
7:30 AM 59.0 °F 42.8 °F 55% 29.68 in 6.2 mi SW 16.1 mph - N/A   Mostly Cloudy
8:00 AM 60.8 °F 42.8 °F 52% 29.71 in 6.2 mi SSW 18.4 mph - N/A   Mostly Cloudy
8:11 AM 60.8 °F 41.0 °F 48% 29.68 in 6.2 mi SSW 20.7 mph 33.4 mph N/A   Mostly Cloudy
8:30 AM 60.8 °F 41.0 °F 48% 29.68 in - SW 20.7 mph - N/A   Clear
8:50 AM 60.8 °F 41.0 °F 48% 29.68 in 6.2 mi SW 17.3 mph 28.8 mph N/A   Mostly Cloudy
9:00 AM 60.8 °F 37.4 °F 42% 29.68 in 6.2 mi SW 24.2 mph - N/A   Mostly Cloudy
9:14 AM 60.8 °F 35.6 °F 39% 29.68 in 6.2 mi SW 26.5 mph 38.0 mph N/A   Mostly Cloudy
9:30 AM 60.8 °F 33.8 °F 36% 29.68 in 6.2 mi SW 25.3 mph - N/A   Mostly Cloudy
9:33 AM 60.8 °F 33.8 °F 36% 29.68 in 6.2 mi SW 24.2 mph 35.7 mph N/A   Mostly Cloudy
10:00 AM 60.8 °F 33.8 °F 36% 29.68 in 6.2 mi SW 25.3 mph 38.0 mph N/A   Mostly Cloudy
10:30 AM 60.8 °F 28.4 °F 29% 29.65 in 6.2 mi SW 26.5 mph 40.3 mph N/A   Mostly Cloudy
11:00 AM 60.8 °F 28.4 °F 29% 29.65 in 6.2 mi SSW 27.6 mph 40.3 mph N/A   Mostly Cloudy
11:30 AM 60.8 °F 30.2 °F 31% 29.65 in 6.2 mi SSW 28.8 mph 43.7 mph N/A   Scattered Clouds
12:00 PM 62.6 °F 30.2 °F 30% 29.62 in 6.2 mi SSW 27.6 mph 41.4 mph N/A   Scattered Clouds
12:30 PM 62.6 °F 26.6 °F 26% 29.62 in 6.2 mi SSW 28.8 mph 46.0 mph N/A   Mostly Cloudy
1:00 PM 62.6 °F 30.2 °F 30% 29.59 in 6.2 mi SW 33.4 mph 46.0 mph N/A   Mostly Cloudy
1:30 PM 62.6 °F 28.4 °F 27% 29.59 in 6.2 mi SW 26.5 mph 40.3 mph N/A   Mostly Cloudy
2:00 PM 62.6 °F 28.4 °F 27% 29.59 in 6.2 mi SW 23.0 mph - N/A   Mostly Cloudy
2:05 PM 62.6 °F 28.4 °F 27% 29.59 in 6.2 mi SW 21.9 mph 33.4 mph N/A   Mostly Cloudy
2:30 PM 60.8 °F 26.6 °F 27% 29.62 in 6.2 mi SW 23.0 mph - N/A   Mostly Cloudy
3:00 PM 60.8 °F 26.6 °F 27% 29.62 in 6.2 mi SW 19.6 mph - N/A   Mostly Cloudy
3:17 PM 60.8 °F 28.4 °F 29% 29.65 in 6.2 mi SW 19.6 mph 33.4 mph N/A   Scattered Clouds
3:30 PM 60.8 °F 28.4 °F 29% 29.65 in 6.2 mi SW 16.1 mph - N/A   Scattered Clouds
4:00 PM 59.0 °F 28.4 °F 31% 29.65 in 6.2 mi SW 13.8 mph - N/A   Scattered Clouds
4:30 PM 59.0 °F 30.2 °F 34% 29.68 in 6.2 mi SW 12.7 mph - N/A   Partly Cloudy
5:00 PM 57.2 °F 30.2 °F 36% 29.68 in 6.2 mi WSW 11.5 mph - N/A   Partly Cloudy
5:30 PM 55.4 °F 32.0 °F 41% 29.71 in 6.2 mi Variable 2.3 mph - N/A   Partly Cloudy
5:41 PM 57.2 °F 26.6 °F 31% 29.71 in 6.2 mi NNE 11.5 mph - N/A   Partly Cloudy
6:00 PM 55.4 °F 24.8 °F 31% 29.74 in 6.2 mi North 17.3 mph - N/A   Partly Cloudy
6:30 PM 55.4 °F 24.8 °F 31% 29.74 in 6.2 mi North 16.1 mph - N/A   Partly Cloudy
7:00 PM 53.6 °F 24.8 °F 33% 29.77 in 6.2 mi North 16.1 mph - N/A   Partly Cloudy
7:30 PM 53.6 °F 26.6 °F 35% 29.77 in 6.2 mi North 18.4 mph - N/A   Partly Cloudy
8:00 PM 51.8 °F 26.6 °F 38% 29.77 in 6.2 mi North 20.7 mph - N/A   Partly Cloudy
8:30 PM 51.8 °F 28.4 °F 41% 29.77 in 6.2 mi NNE 21.9 mph - N/A   Partly Cloudy
9:00 PM 51.8 °F 24.8 °F 35% 29.77 in 6.2 mi North 21.9 mph - N/A   Partly Cloudy
9:30 PM 51.8 °F 24.8 °F 35% 29.80 in 6.2 mi North 20.7 mph - N/A   Partly Cloudy
10:00 PM 50.0 °F 24.8 °F 37% 29.80 in 6.2 mi North 18.4 mph - N/A   Partly Cloudy
10:30 PM 50.0 °F 24.8 °F 37% 29.80 in 6.2 mi North 16.1 mph - N/A   Partly Cloudy
11:00 PM 50.0 °F 23.0 °F 35% 29.80 in 6.2 mi North 16.1 mph - N/A   Partly Cloudy
11:30 PM 50.0 °F 21.2 °F 32% 29.80 in 6.2 mi North 15.0 mph - N/A   Partly Cloudy